www.pogodaiklimat.ru

Погода и климат >> Архив погоды >> Бангладеш >> Маймансингх


ПОГОДА в Маймансингхе

  • Прогноз погоды в Маймансингхе
  • Монитор погоды в Маймансингхе

АРХИВ ПОГОДЫ в Маймансингхе

Время (UTC), дата Ветер
(напр.,м/с)
 
Видим.   Явления Облачность Т
(С)
Тd
(С)
f
(%)
Тe
(С)
Тes
(С)
Комфортность P
(гПа)
Po
(гПа)
Тmin
(С)
Tmax
(С)
R
(мм)
R24
(мм)
S
(см)
12 17.06 СВ 2 6000 м 9/1 540 м
[Sc As trans]
+30.0 +27.0 84 +47 +48 опасность
перегрева
998.0 996.0 +32.4
15 17.06 ЮВ 2 5000 м гроза без осадков 10/6 480 м
[Cb calv As op]
+28.0 +25.0 84 +40 +40 очень
душно
1000.0 998.0
18 17.06 Ю 1 5000 м гроза, ливневой дождь 10/5 540 м
[Cb calv As op]
+26.7 +26.0 96 +40 +40 очень
душно
1001.4 999.3 0.2
00 18.06 В 1 4000 м слаб. дождь {гроза} 10/6 480 м
[Cb calv As op]
+25.7 +25.0 96 +37 +37 очень
душно
999.4 997.7 2
03 18.06 ЮВ 1 6000 м 10/3 540 м
[Sc As op]
+27.7 +25.0 85 +40 +42 очень
душно
1001.6 999.5 +25.6
06 18.06 ЮВ 1 7000 м 3/3 750 м
[Cu hum]
+31.2 +25.0 70 +45 +63 опасность
перегрева
1001.3 999.3
09 18.06 З 1 8000 м 6/0 300 м
[Ci fib]
+33.6 +25.0 61 +47 +61 опасность
перегрева
998.8 996.8
12 18.06 ЮЗ 1 7000 м 9/0
[Ci fib]
+32.1 +27.0 75 +50 +51 опасность
перегрева
997.4 995.4 +33.8
15 18.06 штиль 0 6000 м 4/3 750 м
[Cu hum Ci fib]
+30.0 +28.0 89 +50 +50 опасность
перегрева
998.9 997.0
18 18.06 штиль 0 5000 м 6/0
[Ac trans]
+28.8 +28.0 95 +47 +47 опасность
перегрева
1001.2 999.2
00 19.06 штиль 0 3000 м дымка {туман} 6/0
[Cc]
+28.0 +27.0 94 +44 +45 опасность
перегрева
999.9 997.8
03 19.06 В 1 6000 м {туман} 5/3 750 м
[Cu hum Ci fib]
+30.1 +28.0 89 +50 +60 опасность
перегрева
1001.3 999.3 +27.4
06 19.06 В 1 8000 м {туман} 5/5 540 м
[Sc diur, vesp]
+35.0 +27.0 63 +53 +67 опасность
перегрева
1000.8 998.8
09 19.06 В 1 9000 м 4/4 540 м
[Sc diur, vesp]
+36.0 +26.0 57 +52 +61 опасность
перегрева
998.3 996.3
12 19.06 В 1 8000 м 4/4 540 м
[Sc diur, vesp]
+34.8 +27.0 64 +53 +53 опасность
перегрева
997.9 995.9 +36.5
15 19.06 штиль 0 6000 м 4/0
[Ac trans]
+32.2 +29.0 83 +55 +55 опасность
перегрева
1000.3 998.2
18 19.06 ЮЗ 2 5000 м 8/4 540 м
[Sc As trans]
+30.0 +25.0 75 +43 +43 опасность
перегрева
1000.4 998.4
00 20.06 Ю 1 5000 м гроза без осадков 10/5 450 м
[Cb calv As op]
+26.5 +26.0 97 +40 +40 очень
душно
1001.2 999.2 39
03 20.06 В 2 4000 м гроза без осадков 10/5 480 м
[Cb calv As op]
+27.0 +25.0 89 +39 +40 очень
душно
1003.1 1001.0 +25.8
06 20.06 ЮВ 1 3500 м гроза, ливневой дождь 10/5 450 м
[Cb calv As op]
+27.5 +27.0 97 +43 +46 опасность
перегрева
1003.6 1001.5 9
09 20.06 штиль 0 6000 м {гроза, дождь} 10/4 480 м
[Cb calv As trans]
+31.0 +26.0 75 +46 +51 опасность
перегрева
1000.5 998.5
12 20.06 штиль 0 6000 м {гроза, дождь} 8/3 540 м
[Sc As trans]
+30.2 +28.0 88 +50 +50 опасность
перегрева
999.7 997.7 +31.7 1
15 20.06 СВ 1 6000 м ясно +29.2 +28.0 93 +48 +48 опасность
перегрева
1001.8 999.8
18 20.06 Ю 1 5000 м гроза без осадков 10/5 480 м
[Cb calv As op]
+29.0 +28.0 94 +48 +48 опасность
перегрева
1002.6 1000.6
00 21.06 СВ 1 6000 м {гроза} 10/4 540 м
[Sc As trans]
+27.5 +27.0 97 +43 +43 опасность
перегрева
1002.4 1000.3
03 21.06 СВ 1 7000 м 9/4 540 м
[Sc As op]
+28.6 +27.0 91 +45 +48 опасность
перегрева
1003.8 1001.7 +27.0
06 21.06 СВ 1 7000 м {гроза, дождь} 8/4 500 м
[Cb calv As op]
+27.5 +26.0 92 +41 +49 опасность
перегрева
1003.9 1001.9 2
09 21.06 СВ 3 8000 м 8/4 540 м
[Sc diur, vesp Ac trans]
+30.5 +26.0 77 +46 +50 опасность
перегрева
1001.9 999.9
06 22.06 Ю 2 7000 м в посл. час дождь 9/5 540 м
[Sc diur, vesp As trans]
+31.2 +27.0 78 +49 +54 опасность
перегрева
1004.7 1002.6 1
12 22.06 ЮВ 1 6000 м {гроза, дождь} 9/5 540 м
[Sc diur, vesp As trans]
+30.0 +25.0 75 +43 +44 опасность
перегрева
1002.5 1000.4 +33.5 0.8
00 23.06 штиль 0 7000 м ясно +27.5 +27.0 97 +43 +44 опасность
перегрева
1004.2 1002.1
06 23.06 Ю 2 8000 м 6/6 480 м
[Sc]
+34.0 +25.0 59 +47 +56 опасность
перегрева
1005.0 1003.0
09 23.06 ЮВ 1 8000 м 5/5 480 м
[Sc]
+34.8 +25.0 57 +48 +56 опасность
перегрева
1003.3 1001.3
12 23.06 Ю 1 8000 м 6/0
[Ci fib]
+33.5 +26.0 65 +49 +50 опасность
перегрева
1002.5 1000.5 +35.5
15 23.06 Ю 1 6000 м ясно +31.0 +28.0 84 +51 +51 опасность
перегрева
1003.4 1001.4
18 23.06 ЮВ 1 5000 м ясно +30.5 +27.0 82 +48 +48 опасность
перегрева
1004.1 1002.1
00 24.06 Ю 1 7000 м 6/0
[Ci fib]
+28.5 +27.0 92 +45 +46 опасность
перегрева
1005.0 1002.9
03 24.06 З 1 7000 м 5/3 750 м
[Cu med, cong Ac trans]
+31.8 +27.0 76 +50 +58 опасность
перегрева
1006.2 1004.1 +28.4
06 24.06 ЮЗ 1 8000 м 4/4 540 м
[Sc diur, vesp]
+34.0 +25.0 59 +47 +63 опасность
перегрева
1005.9 1003.9

 

Местоположение метеостанции Маймансингх (Бангладеш): широта 24.72 долгота 90.43 высота над уровнем моря 19 м.

В архиве по умолчанию представлена погода в Маймансингхе за последнюю неделю. Архивные данные за месяц целиком и за предыдущие месяцы, начиная с января 2011 года, Вы можете получить, выбрав интересующий диапазон дат из раскрывающегося списка и нажав кнопку "Ввод!".


*Определитесь, кто Вы:
робот инопланетянин человек

Внимание! Время в таблицах - всемирное. Для получения местного времени необходимо прибавить поправку, которая равна 6.5 ч.

Смотрите также архив погоды в соседних городах и на ближайших метеорологических станциях:

Погода в Нетрокона-Садаре (Бангладеш) (36 км)
Погода в Никли (Бангладеш) (67 км)
Погода в Тангайле (Бангладеш) (73 км)
Погода в Дакке (Бангладеш) (106 км)
Погода в Богре (Бангладеш) (108 км)
Погода в Агартале (Трипура, Индия) (125 км)
Погода в Тараше (Бангладеш) (132 км)
Погода в Фаридпуре (Бангладеш) (138 км)
Погода в Стримангале (Бангладеш) (140 км)
Погода в Черапунджи (Мегхалая, Индия) (144 км)

Пояснения к столбцам:

Ветер - указаны скорость ветра в м/с - средняя за 10 мин, порывы в срок и между сроками (в фигурных скобках) и направление, откуда дует ветер: С - северный, СВ - северо-восточный, В - восточный, ЮВ - юго-восточный, Ю - южный, ЮЗ - юго-западный, З - западный, СЗ - северо-западный.
Видимость - горизонтальная дальность видимости в метрах или километрах. При видимости от 1 до 10 км при отсутствии осадков обычно наблюдается дымка, при ухудшении видимости до 1 км и менее - туман. В сухую погоду видимость может ухудшаться дымом, пылью или мглою.
Явления - указаны атмосферные явления, наблюдавшиеся в срок или в последний час перед сроком; фигурными скобками обозначены явления, наблюдавшиеся между сроками (за 1-3 часа до срока); квадратными скобками обозначены град или гололедные отложения с указанием их диаметра в мм.
Облачность - указаны через наклонную черту общая и нижняя облачность в баллах и высота нижней границы облаков в метрах; квадратными скобками обозначены формы облаков: Ci - перистые, Cs - перисто-слоистые, Cc - перисто-кучевые, Ac - высококучевые, As - высокослоистые, Sc - слоисто-кучевые, Ns - слоисто-дождевые, Cu - кучевые, Cb - кучево-дождевые. Подробнее классификацию облаков см. в Атласе облаков (PDF).
T - Температура воздуха - температура, измеренная на высоте 2 м над землей.
Td - Температура точки росы - температура, при понижении до которой содержащийся в воздухе водяной пар достигнет насыщения.
f - Относительная влажность воздуха - влажноcть воздуха, измеренная на высоте 2 м над землей.
Te - Эффективная температура - температура, которую ощущает одетый по сезону человек в тени. Характеристика душности погоды. При расчете учитывается влияние влажности воздуха и скорости ветра на теплоощущения человека.
Tes - Эффективная температура на солнце - температура, которую ощущает человек, с поправкой на солнечный нагрев. Характеристика знойности погоды. Зависит от высоты солнца над горизонтом, облачности и скорости ветра. Ночью, в пасмурную погоду, а также при ветре 12 м/с и более поправка равна нулю.
P - Атмосферное давление - приведенное к уровню моря атмосферное давление.
Po - Атмосферное давление - измеренное на уровне метеостанции атмосферное давление.
Tmin - Минимальная температура - минимум температуры воздуха на высоте 2 м над землей.
Tmax - Максимальная температура - максимум температуры воздуха на высоте 2 м над землей.
R - Количество осадков - Количество выпавших осадков за период времени, мм. При наведении курсора мыши на число - период времени, за который выпало указанное количество осадков.
R24 - Количество осадков - Количество выпавших осадков за 24 часа, мм.
S - Снежный покров - Высота снежного покрова, см. При наведении курсора мыши на число - состояние снежного покрова и степень покрытия местности в баллах.